�������l�o���
Date,Time,MP-1(��Sv/h),MP-2(��Sv/h),MP-3(��Sv/h),MP-4(��Sv/h),MP-5(��Sv/h),MP-6(��Sv/h),MP-7(��Sv/h),MP-8(��Sv/h),����,����(m/s),���J
2017/01/14,00:00,1.072,1.785,1.165,2.023,1.398,0.559,1.026,0.951,�k�k��,7.4,��
2017/01/14,00:10,1.074,1.785,1.165,2.023,1.400,0.557,1.024,0.952,�k�k��,7.6,��
2017/01/14,00:20,1.071,1.786,1.163,2.023,1.396,0.556,1.024,0.952,�k�k��,8.3,��
2017/01/14,00:30,1.074,1.786,1.164,2.025,1.396,0.555,1.023,0.952,�k�k��,6.5,��
2017/01/14,00:40,1.073,1.785,1.163,2.024,1.398,0.556,1.026,0.952,�k�k��,6.5,��
2017/01/14,00:50,1.073,1.785,1.165,2.025,1.396,0.558,1.024,0.951,�k��,6.7,��
2017/01/14,01:00,1.071,1.785,1.161,2.021,1.396,0.559,1.024,0.953,�k��,7.3,��
2017/01/14,01:10,1.073,1.783,1.165,2.023,1.396,0.557,1.027,0.952,�k��,7.5,��
2017/01/14,01:20,1.072,1.784,1.163,2.022,1.395,0.559,1.025,0.952,�k��,7.4,��
2017/01/14,01:30,1.071,1.785,1.165,2.024,1.393,0.558,1.027,0.951,�k��,7.6,��
2017/01/14,01:40,1.073,1.785,1.166,2.023,1.396,0.559,1.024,0.952,�k��,8.3,��
2017/01/14,01:50,1.072,1.785,1.166,2.024,1.394,0.558,1.025,0.951,�k��,7.4,��
2017/01/14,02:00,1.069,1.786,1.164,2.022,1.395,0.558,1.025,0.952,�k��,6.7,��
2017/01/14,02:10,1.072,1.786,1.164,2.025,1.393,0.558,1.024,0.952,�k��,6.7,��
2017/01/14,02:20,1.071,1.784,1.164,2.024,1.396,0.558,1.027,0.950,�k��,6.9,��
2017/01/14,02:30,1.072,1.783,1.165,2.022,1.394,0.557,1.026,0.954,�k��,6.4,��
2017/01/14,02:40,1.073,1.783,1.166,2.023,1.395,0.560,1.024,0.953,�k��,6.1,��
2017/01/14,02:50,1.073,1.786,1.164,2.024,1.397,0.558,1.025,0.952,�k��,6.7,��
2017/01/14,03:00,1.071,1.784,1.165,2.027,1.396,0.558,1.026,0.952,�k��,7.4,��
2017/01/14,03:10,1.072,1.786,1.166,2.027,1.395,0.558,1.025,0.953,�k��,6.5,��
2017/01/14,03:20,1.074,1.785,1.167,2.024,1.396,0.558,1.025,0.951,�k��,6.4,��
2017/01/14,03:30,1.071,1.785,1.163,2.027,1.396,0.557,1.025,0.952,�k��,5.5,��
2017/01/14,03:40,1.071,1.786,1.165,2.026,1.396,0.559,1.025,0.952,�k��,5.6,��
2017/01/14,03:50,1.073,1.783,1.166,2.024,1.394,0.558,1.026,0.951,�k��,5.0,��
2017/01/14,04:00,1.074,1.783,1.166,2.024,1.397,0.559,1.026,0.952,�k�k��,4.7,��
2017/01/14,04:10,1.074,1.787,1.164,2.024,1.393,0.558,1.026,0.952,�k�k��,5.2,��
2017/01/14,04:20,1.072,1.785,1.163,2.021,1.397,0.557,1.026,0.953,�k�k��,4.6,��
2017/01/14,04:30,1.072,1.786,1.165,2.026,1.396,0.557,1.028,0.952,�k�k��,5.1,��
2017/01/14,04:40,1.070,1.787,1.166,2.024,1.397,0.559,1.025,0.953,�k�k��,5.7,��
2017/01/14,04:50,1.070,1.787,1.166,2.023,1.395,0.559,1.024,0.951,�k�k��,5.9,��
2017/01/14,05:00,1.072,1.787,1.165,2.024,1.396,0.558,1.026,0.952,�k��,5.2,��
2017/01/14,05:10,1.073,1.783,1.164,2.026,1.395,0.558,1.027,0.949,�k��,4.1,��
2017/01/14,05:20,1.072,1.781,1.167,2.025,1.397,0.557,1.026,0.951,�k�k��,4.3,��
2017/01/14,05:30,1.073,1.785,1.164,2.022,1.397,0.560,1.026,0.951,�k�k��,4.2,��
2017/01/14,05:40,1.073,1.785,1.165,2.024,1.395,0.559,1.025,0.953,�k�k��,4.3,��
2017/01/14,05:50,1.073,1.782,1.164,2.025,1.398,0.559,1.025,0.952,�k�k��,4.1,��
2017/01/14,06:00,1.073,1.782,1.163,2.024,1.397,0.556,1.025,0.951,�k�k��,4.6,��
2017/01/14,06:10,1.074,1.785,1.157,2.026,1.396,0.558,1.026,0.953,�k��,4.6,��
2017/01/14,06:20,1.072,1.785,1.136,2.022,1.394,0.558,1.026,0.951,�k��,4.1,��
2017/01/14,06:30,1.073,1.784,1.133,2.022,1.394,0.558,1.026,0.951,�k�k��,3.8,��
2017/01/14,06:40,1.070,1.783,1.139,2.023,1.397,0.557,1.026,0.952,�k�k��,4.4,��
2017/01/14,06:50,1.073,1.785,1.164,2.022,1.396,0.557,1.026,0.953,�k��,5.5,��
2017/01/14,07:00,1.072,1.784,1.164,2.025,1.396,0.557,1.027,0.952,�k��,5.5,��
2017/01/14,07:10,1.073,1.783,1.165,2.024,1.395,0.557,1.025,0.953,�k��,4.8,��
2017/01/14,07:20,1.073,1.783,1.165,2.024,1.396,0.557,1.025,0.952,�k��,4.9,��
2017/01/14,07:30,1.074,1.785,1.165,2.027,1.397,0.557,1.026,0.954,�k��,4.1,��
2017/01/14,07:40,1.074,1.783,1.167,2.026,1.396,0.558,1.025,0.950,�k��,3.5,��
2017/01/14,07:50,1.073,1.784,1.165,2.026,1.395,0.558,1.025,0.953,�k��,3.5,��
2017/01/14,08:00,1.073,1.784,1.169,2.026,1.398,0.558,1.026,0.953,�k��,3.5,��
2017/01/14,08:10,1.072,1.786,1.170,2.025,1.396,0.558,1.026,0.950,�k��,4.6,��
2017/01/14,08:20,1.074,1.785,1.168,2.027,1.397,0.558,1.027,0.951,���k��,5.8,��
2017/01/14,08:30,1.074,1.783,1.168,2.027,1.395,0.557,1.025,0.954,���k��,5.4,��
2017/01/14,08:40,1.076,1.785,1.167,2.026,1.400,0.559,1.028,0.952,���k��,5.5,��
2017/01/14,08:50,1.075,1.787,1.165,2.027,1.396,0.559,1.027,0.953,�k��,6.4,��
2017/01/14,09:00,1.077,1.786,1.167,2.026,1.399,0.559,1.027,0.951,�k��,5.6,��
2017/01/14,09:10,1.074,1.785,1.169,2.023,1.396,0.559,1.024,0.953,�k��,6.1,��
2017/01/14,09:20,1.075,1.786,1.169,2.025,1.400,0.557,1.028,0.953,�k��,6.4,��
2017/01/14,09:30,1.076,1.789,1.166,2.026,1.401,0.557,1.027,0.953,���k��,5.8,��
2017/01/14,09:40,1.077,1.786,1.168,2.030,1.397,0.558,1.027,0.952,���k��,4.7,��
2017/01/14,09:50,1.077,1.785,1.169,2.028,1.398,0.560,1.029,0.953,���k��,3.2,��
2017/01/14,10:00,1.073,1.787,1.168,2.027,1.402,0.559,1.029,0.952,���k��,2.9,��
2017/01/14,10:10,1.076,1.789,1.171,2.028,1.403,0.559,1.029,0.951,���k��,1.5,��
2017/01/14,10:20,1.076,1.787,1.172,2.029,1.401,0.558,1.027,0.954,��,1.1,��
2017/01/14,10:30,1.079,1.791,1.168,2.027,1.404,0.558,1.028,0.954,��,1.7,��
2017/01/14,10:40,1.078,1.791,1.172,2.029,1.404,0.559,1.029,0.954,���k��,2.3,��
2017/01/14,10:50,1.079,1.791,1.174,2.029,1.405,0.561,1.028,0.954,���k��,3.0,��
2017/01/14,11:00,1.081,1.793,1.172,2.032,1.404,0.560,1.028,0.954,���k��,3.5,��
2017/01/14,11:10,1.079,1.792,1.172,2.030,1.405,0.560,1.027,0.953,���k��,5.3,��
2017/01/14,11:20,1.082,1.794,1.173,2.032,1.407,0.560,1.028,0.953,���k��,5.0,��
2017/01/14,11:30,1.081,1.794,1.171,2.032,1.406,0.559,1.031,0.957,���k��,5.5,��
2017/01/14,11:40,1.081,1.797,1.175,2.033,1.407,0.561,1.028,0.953,���k��,5.0,��
2017/01/14,11:50,1.083,1.795,1.175,2.032,1.408,0.561,1.029,0.955,���k��,5.9,��
2017/01/14,12:00,1.084,1.792,1.174,2.033,1.409,0.561,1.026,0.955,���k��,4.5,��
2017/01/14,12:10,1.082,1.792,1.173,2.031,1.409,0.561,1.027,0.953,���k��,4.9,��
2017/01/14,12:20,1.083,1.795,1.174,2.032,1.409,0.561,1.030,0.955,���k��,5.9,��
2017/01/14,12:30,1.083,1.795,1.175,2.030,1.410,0.561,1.026,0.954,���k��,6.7,��
2017/01/14,12:40,1.080,1.792,1.176,2.033,1.407,0.563,1.030,0.955,�k��,8.0,��
2017/01/14,12:50,1.082,1.796,1.176,2.034,1.409,0.562,1.029,0.955,���k��,7.5,��
2017/01/14,13:00,1.082,1.795,1.175,2.029,1.409,0.561,1.029,0.953,���k��,7.7,��
2017/01/14,13:10,1.084,1.794,1.175,2.035,1.411,0.560,1.029,0.953,�k��,8.4,��
2017/01/14,13:20,1.082,1.796,1.175,2.035,1.411,0.561,1.027,0.956,�k��,9.7,��
2017/01/14,13:30,1.082,1.796,1.175,2.033,1.409,0.562,1.029,0.955,�k��,10.7,��
2017/01/14,13:40,1.081,1.796,1.172,2.032,1.408,0.560,1.028,0.954,�k��,9.9,��
2017/01/14,13:50,1.081,1.795,1.174,2.032,1.408,0.558,1.027,0.955,�k��,10.8,��
2017/01/14,14:00,1.082,1.795,1.174,2.028,1.409,0.559,1.029,0.955,�k��,7.9,��
2017/01/14,14:10,1.079,1.796,1.170,2.031,1.410,0.558,1.029,0.955,�k��,8.5,��
2017/01/14,14:20,1.081,1.792,1.169,2.034,1.410,0.558,1.027,0.955,�k��,7.1,��
2017/01/14,14:30,1.080,1.793,1.168,2.033,1.411,0.559,1.027,0.954,�k�k��,8.0,��
2017/01/14,14:40,1.078,1.797,1.171,2.033,1.411,0.558,1.028,0.954,�k�k��,8.5,��
2017/01/14,14:50,1.078,1.797,1.169,2.032,1.410,0.557,1.026,0.955,�k�k��,8.4,��
2017/01/14,15:00,1.079,1.796,1.172,2.037,1.412,0.559,1.026,0.952,�k�k��,7.0,��
2017/01/14,15:10,1.077,1.797,1.171,2.037,1.410,0.559,1.027,0.954,�k�k��,6.6,��
2017/01/14,15:20,1.077,1.795,1.173,2.032,1.412,0.557,1.028,0.953,�k��,7.8,��
2017/01/14,15:30,1.076,1.792,1.173,2.032,1.409,0.560,1.028,0.954,�k��,8.6,��
2017/01/14,15:40,1.078,1.798,1.173,2.031,1.411,0.560,1.028,0.954,�k��,8.1,��
2017/01/14,15:50,1.079,1.800,1.171,2.033,1.413,0.560,1.029,0.956,�k��,8.2,��
2017/01/14,16:00,1.081,1.794,1.170,2.034,1.411,0.561,1.027,0.953,�k��,10.0,��
2017/01/14,16:10,1.081,1.797,1.172,2.031,1.410,0.562,1.027,0.955,�k��,8.1,��
2017/01/14,16:20,1.081,1.797,1.177,2.032,1.413,0.559,1.028,0.955,�k��,8.3,��
2017/01/14,16:30,1.078,1.797,1.170,2.032,1.409,0.559,1.029,0.953,�k�k��,6.1,��
2017/01/14,16:40,1.080,1.797,1.169,2.034,1.410,0.559,1.028,0.955,�k�k��,6.3,��
2017/01/14,16:50,1.080,1.795,1.172,2.032,1.410,0.557,1.027,0.955,�k��,5.7,��
2017/01/14,17:00,1.078,1.796,1.170,2.032,1.408,0.559,1.027,0.956,�k��,6.7,��
2017/01/14,17:10,1.078,1.796,1.169,2.033,1.408,0.560,1.030,0.953,�k��,7.0,��
2017/01/14,17:20,1.080,1.797,1.170,2.036,1.408,0.558,1.025,0.954,���k��,7.8,��
2017/01/14,17:30,1.078,1.798,1.170,2.036,1.408,0.559,1.027,0.954,���k��,7.3,��
2017/01/14,17:40,1.078,1.798,1.170,2.032,1.408,0.558,1.028,0.954,�k��,7.9,��
2017/01/14,17:50,1.079,1.798,1.169,2.035,1.409,0.560,1.027,0.952,�k��,9.4,��
2017/01/14,18:00,1.076,1.796,1.170,2.033,1.408,0.559,1.025,0.953,�k��,8.7,��
2017/01/14,18:10,1.076,1.798,1.168,2.034,1.406,0.558,1.023,0.951,�k��,6.8,��
2017/01/14,18:20,1.076,1.795,1.171,2.037,1.406,0.557,1.023,0.953,�k��,6.8,��
2017/01/14,18:30,1.076,1.796,1.169,2.036,1.403,0.557,1.024,0.954,�k��,5.6,��
2017/01/14,18:40,1.079,1.796,1.167,2.035,1.407,0.559,1.023,0.952,���k��,5.1,��
2017/01/14,18:50,1.075,1.793,1.172,2.033,1.405,0.558,1.019,0.953,���k��,5.0,��
2017/01/14,19:00,1.073,1.793,1.168,2.033,1.405,0.560,1.024,0.954,���k��,4.0,��
2017/01/14,19:10,1.077,1.793,1.172,2.032,1.406,0.559,1.025,0.953,���k��,5.3,��
2017/01/14,19:20,1.077,1.794,1.171,2.033,1.403,0.558,1.025,0.953,�k��,6.2,��
2017/01/14,19:30,1.075,1.795,1.172,2.032,1.405,0.559,1.026,0.953,���k��,6.8,��
2017/01/14,19:40,1.076,1.793,1.170,2.036,1.405,0.560,1.026,0.955,���k��,7.5,��
2017/01/14,19:50,1.075,1.792,1.169,2.030,1.407,0.559,1.026,0.954,���k��,6.4,��
2017/01/14,20:00,1.076,1.794,1.169,2.032,1.407,0.559,1.029,0.954,���k��,6.7,��
2017/01/14,20:10,1.074,1.793,1.169,2.034,1.407,0.559,1.027,0.953,���k��,5.7,��
2017/01/14,20:20,1.076,1.792,1.169,2.034,1.405,0.560,1.027,0.953,���k��,5.0,��
2017/01/14,20:30,1.073,1.795,1.170,2.030,1.406,0.558,1.026,0.953,���k��,5.0,��
2017/01/14,20:40,1.075,1.795,1.169,2.031,1.407,0.559,1.025,0.953,���k��,6.1,��
2017/01/14,20:50,1.075,1.794,1.168,2.031,1.407,0.558,1.026,0.953,���k��,4.9,��
2017/01/14,21:00,1.074,1.792,1.170,2.032,1.405,0.558,1.026,0.954,���k��,3.8,��
2017/01/14,21:10,1.074,1.793,1.171,2.029,1.403,0.560,1.026,0.952,�k��,4.3,��
2017/01/14,21:20,1.074,1.794,1.169,2.032,1.403,0.557,1.026,0.953,�k��,3.5,��
2017/01/14,21:30,1.075,1.792,1.170,2.031,1.404,0.559,1.026,0.952,���k��,4.3,��
2017/01/14,21:40,1.073,1.793,1.170,2.030,1.404,0.557,1.025,0.954,���k��,5.1,��
2017/01/14,21:50,1.073,1.792,1.169,2.034,1.403,0.560,1.025,0.954,��,4.5,��
2017/01/14,22:00,1.072,1.792,1.169,2.031,1.405,0.558,1.025,0.953,��,4.2,��
2017/01/14,22:10,1.074,1.792,1.167,2.032,1.402,0.560,1.027,0.953,��,3.4,��
2017/01/14,22:20,1.075,1.792,1.168,2.029,1.402,0.559,1.027,0.953,�k�k��,0.9,��
2017/01/14,22:30,1.073,1.792,1.168,2.031,1.402,0.559,1.024,0.953,�k�k��,2.6,��
2017/01/14,22:40,1.074,1.792,1.168,2.030,1.401,0.559,1.027,0.953,��,4.9,��
2017/01/14,22:50,1.073,1.791,1.169,2.031,1.402,0.558,1.026,0.952,��,6.6,��
2017/01/14,23:00,1.073,1.795,1.169,2.030,1.402,0.559,1.026,0.953,��,6.2,��
2017/01/14,23:10,1.074,1.794,1.169,2.031,1.403,0.559,1.024,0.954,��,5.2,��
2017/01/14,23:20,1.075,1.792,1.169,2.033,1.402,0.557,1.027,0.952,��,6.0,��
2017/01/14,23:30,1.075,1.792,1.166,2.027,1.400,0.559,1.026,0.954,��,5.6,��
2017/01/14,23:40,1.073,1.789,1.168,2.032,1.402,0.559,1.026,0.953,���쐼,8.0,��
2017/01/14,23:50,1.073,1.791,1.169,2.033,1.404,0.558,1.026,0.951,���쐼,9.0,��
